Rbgn^[z[y[W
メイン
   新天体発見情報
     Comet C/2025 K2 (PANSTARRS)
投稿するにはまず登録を

スレッド表示 | 新しいものから 前のトピック | 次のトピック | 下へ
投稿者 スレッド
佐藤裕久
投稿日時: 2025-6-12 17:51
モデレータ
登録日: 2005-6-12
居住地: 日本
投稿: 2669
オンライン
Comet C/2025 K2 (PANSTARRS)

R. Weryk (西オンタリオ大学,物理および天文学科)の通報によると、5月29日、HaleakalaのPan-
STARRS1 1.8-m Ritchey-Chretien反射望遠鏡で得た画像から彗星を発見した。
3枚45-秒のw-バンドサーベイ画像では、1".5のシーイングで、2".1(半値全幅:FWHM)の拡散した
頭部が見え、p.a. 290°に約3"の尾がある。
Werykは(R. Wainscoatとともに)、5月30.6日UT、3.6-m Canada-France-Hawaii望遠鏡で得た3枚の
60-秒のgri-バンド露出で得た画像から、これが彗星であることを確認した。1".1のシーイングで、
1".4-1".5 (FWHM)の集光した頭部とp.a. 275-300°にわたって>30" の広い尾がある。

彗星機能の報告は次のとおり、

OC   Date        Reporter            Coma    Tail   PA   Comet     Date
                                                        (T/P)   Reported
F51  2025-05-29  R. Weryk            0".6      3"  290    T   2025-05-29.59
T14  2025-05-30  R. Weryk            0".4     30"  275    T   2025-05-30.62

発見位置は次のとおり(PCCP P12at3o)、

     2025 UT             R.A. (2000) Decl.       Mag.
     May  29.53372   20 42 04.92   -34 52 16.2   20.4
          29.54217   20 42 04.47   -34 52 28.9   20.2
          29.55061   20 42 03.99   -34 52 41.8   20.5
          29.60499   20 42 01.02   -34 54 05.1   20.7
          29.60563   20 42 00.98   -34 54 06.0   20.9

MPCの楕円軌道要素は次のとおり、

Orbital elements:
    C/2025 K2 (PANSTARRS)                                                       
Epoch 2025 May 5.0 TT = JDT 2460800.5                                           
T 2025 Nov. 1.37841 TT                                  Pike                    
q   2.8344339            (2000.0)            P               Q                  
n   0.02140943     Peri.  233.63053     -0.05603522     -0.53536375             
a  12.8449548      Node   113.44396     -0.32108622     +0.80891051             
e   0.7793348      Incl.  113.27908     -0.94539076     -0.24300088             
P  46.0                                                                         
From 14 observations 2025 May 29-June 2, mean residual 0".3.                    
                                                                                
Ephemeris:
Date    TT    R. A. (2000) Decl.     Delta      r    Elong.  Phase   m1
2025 05 03    20 52 13.1 -25 49 19   3.0334  3.2639    94.1    17.9  21.2
...
2025 05 18    20 49 24.5 -30 24 11   2.7112  3.2016   110.0    17.3  20.9
...
2025 05 26    20 44 55.0 -33 24 42   2.5540  3.1700   118.9    16.2  20.7
...
2025 06 01    20 39 45.0 -35 56 00   2.4465  3.1469   125.6    15.2  20.6
2025 06 02    20 38 43.0 -36 22 28   2.4297  3.1432   126.7    15.0  20.6
2025 06 03    20 37 37.9 -36 49 18   2.4131  3.1394   127.9    14.8  20.6
...
2025 06 09    20 29 55.8 -39 36 47   2.3212  3.1172   134.4    13.4  20.5
...
2025 06 17    20 16 03.4 -43 33 15   2.2208  3.0887   142.4    11.6  20.3
...
2025 07 02    19 36 31.7 -50 54 49   2.1135  3.0387   150.3     9.5  20.2

(MPEC 2025-L17、CBET 5558)

スレッド表示 | 新しいものから 前のトピック | 次のトピック | トップ

投稿するにはまず登録を
 
© 1999 Tsutomu Seki.